This is the latest recevied weather packets stored in our database for station/object IZ5TJI-3. If no packets are shown the sender has not sent any weather packets the latest 1 day(s).
| Time | Temp. | Humidity | Pressure | Rain* | Wind** | Luminosity | Snow |
|---|---|---|---|---|---|---|---|
| 1777975216 | 15.56° C | 90% | 1011.8 hPa | 0.51 mm | 0.89 m/s, 45° | - | - |
| 1777974316 | 15° C | 90% | 1012.2 hPa | 0.51 mm | 2.24 m/s, 292° | - | - |
| 1777973416 | 15° C | 90% | 1012.2 hPa | 0 mm | 1.79 m/s, 292° | - | - |
| 1777972516 | 15° C | 90% | 1012 hPa | 0 mm | 1.34 m/s, 67° | - | - |
| 1777971616 | 14.44° C | 90% | 1012 hPa | 0 mm | 1.34 m/s, 112° | - | - |
| 1777970716 | 13.89° C | 90% | 1012 hPa | 0 mm | 1.79 m/s, 112° | - | - |
| 1777969816 | 13.89° C | 89% | 1012.2 hPa | 0 mm | 1.34 m/s, 0° | - | - |
| 1777968916 | 13.89° C | 89% | 1012 hPa | 0 mm | 1.34 m/s, 90° | - | - |
| 1777968016 | 13.89° C | 89% | 1012 hPa | 0 mm | 1.79 m/s, 90° | - | - |
| 1777967116 | 13.33° C | 89% | 1011.8 hPa | 0 mm | 1.79 m/s, 112° | - | - |
| 1777966216 | 13.33° C | 90% | 1012 hPa | 0 mm | 1.79 m/s, 135° | - | - |
| 1777965316 | 12.78° C | 90% | 1012.1 hPa | 0 mm | 0.45 m/s, 67° | - | - |
| 1777964416 | 12.78° C | 90% | 1012.2 hPa | 0 mm | 1.79 m/s, 67° | - | - |
| 1777963516 | 12.78° C | 90% | 1012.3 hPa | 0.51 mm | 0 m/s | - | - |
| 1777962616 | 12.78° C | 90% | 1012.2 hPa | 1.02 mm | 0 m/s | - | - |
| 1777961716 | 12.22° C | 90% | 1012.2 hPa | 1.02 mm | 0 m/s | - | - |
| 1777960816 | 12.22° C | 90% | 1012.2 hPa | 1.52 mm | 0 m/s | - | - |
| 1777959916 | 12.22° C | 90% | 1012 hPa | 1.02 mm | 0 m/s | - | - |
| 1777959016 | 12.22° C | 90% | 1012.1 hPa | 1.02 mm | 2.68 m/s, 112° | - | - |
| 1777958116 | 12.22° C | 90% | 1012.3 hPa | 1.52 mm | 0 m/s | - | - |
| 1777957216 | 12.22° C | 90% | 1011.9 hPa | 3.56 mm | 0 m/s | - | - |
| 1777956316 | 12.22° C | 90% | 1011.9 hPa | 4.06 mm | 0.45 m/s, 67° | - | - |
| 1777955416 | 12.22° C | 90% | 1012.1 hPa | 3.56 mm | 0 m/s | - | - |
| 1777954516 | 12.22° C | 89% | 1012 hPa | 2.54 mm | 1.34 m/s, 67° | - | - |
| 1777953623 | 12.22° C | 89% | 1012.1 hPa | 0.51 mm | 0.45 m/s, 90° | - | - |
* Rain latest hour (hover to see other rain measurements)
** Current wind speed in m/s (hover to see current wind gust speed)